Weather History for KTIF - March, 2014

Change the Weather History Date:

Tuesday, March 18, 2014

  Actual Average (KLBF) Record (KLBF)
Temperature  
Mean Temperature 42 °F 39 °F  
Max Temperature 53 °F 53 °F 84 °F (2012)
Min Temperature 32 °F 24 °F -3 °F (1965)
Degree Days  
Heating Degree Days 22 26  
Month to date heating degree days 521  
Since 1 July heating degree days 5549  
Cooling Degree Days 0 0  
Month to date cooling degree days 0  
Year to date cooling degree days 0  
Moisture  
Dew Point 31 °F    
Average Humidity 81    
Maximum Humidity 92    
Minimum Humidity 38    
Precipitation  
Precipitation 0.01 in 0.03 in 1.01 in (1979)
Month to date precipitation 0.53  
Year to date precipitation 1.37  
Snow  
Snow 0.00 in 0.10 in 9.00 in (1970)
Month to date snowfall 2.6  
Since 1 July snowfall 23.5  
Snow Depth -    
Sea Level Pressure  
Sea Level Pressure 29.63 in    
Wind  
Wind Speed 15 mph (NNW)    
Max Wind Speed 31 mph    
Max Gust Speed 38 mph    
Visibility 7 miles    
Events Snow    
T = Trace of Precipitation, MM = Missing Value Source: NWS Daily Summary

Daily Weather History Graph

Daily Weather History Graph

Search for Another Location

Airport or City:

Trip Planner

Search our weather history database for the weather conditions in past years. The results will help you decide how hot, cold, wet, or windy it might be!

Date:

Astronomy

Mar. 18, 2014 Rise Set
Actual Time 7:48 AM CDT 7:52 PM CDT
Civil Twilight 7:21 AM CDT 8:20 PM CDT
Nautical Twilight 6:48 AM CDT 8:52 PM CDT
Astronomical Twilight 6:15 AM CDT 9:25 PM CDT
Moon 10:14 PM CDT (3/18) 8:37 AM CDT (3/18)
Length of Visible Light 12h 59m
Length of Day
12h 03m
Waning Gibbous, 96% of the Moon is Illuminated
Mar 18
Waning Gibbous
Mar 23
Last Quarter
Mar 30
New
Apr 7
First Quarter
Apr 15
Full

Hourly Weather History & Observations

Time (CDT) Temp. Windchill Dew Point Humidity Pressure Visibility Wind Dir Wind Speed Gust Speed Precip Events Conditions
12:15 AM 53.6 °F - 29.3 °F 39% 29.31 in 10.0 mi Calm Calm - N/A   Scattered Clouds
12:35 AM 52.7 °F - 29.8 °F 42% 29.32 in 10.0 mi WSW 8.1 mph - N/A   Mostly Cloudy
12:55 AM 53.6 °F - 28.4 °F 38% 29.31 in 10.0 mi WNW 6.9 mph - N/A   Overcast
1:15 AM 51.8 °F - 28.2 °F 40% 29.31 in 10.0 mi WNW 6.9 mph - N/A   Overcast
1:35 AM 50.9 °F - 28.6 °F 42% 29.31 in 10.0 mi NNW 4.6 mph - N/A   Mostly Cloudy
1:55 AM 48.9 °F - 32.5 °F 53% 29.32 in 10.0 mi NNW 17.3 mph 25.3 mph N/A   Overcast
2:15 AM 43.9 °F 38.8 °F 32.9 °F 65% 29.34 in 10.0 mi North 9.2 mph 12.7 mph N/A   Scattered Clouds
2:35 AM 42.1 °F 34.9 °F 32.9 °F 70% 29.35 in 10.0 mi NW 13.8 mph 19.6 mph N/A   Clear
2:55 AM 40.5 °F 33.6 °F 32.9 °F 74% 29.36 in 10.0 mi NNW 11.5 mph - N/A   Clear
3:15 AM 40.1 °F 32.4 °F 32.9 °F 75% 29.36 in 10.0 mi NNW 13.8 mph - N/A   Clear
3:35 AM 39.2 °F 30.8 °F 32.4 °F 76% 29.37 in 10.0 mi NNW 15.0 mph 21.9 mph N/A   Scattered Clouds
3:55 AM 38.7 °F 28.8 °F 32.4 °F 78% 29.38 in 10.0 mi NNW 19.6 mph 29.9 mph N/A   Mostly Cloudy
4:15 AM 38.3 °F 28.7 °F 32.5 °F 80% 29.40 in 10.0 mi NNW 18.4 mph 25.3 mph N/A   Overcast
4:35 AM 37.9 °F 27.9 °F 32.4 °F 80% 29.43 in 10.0 mi NNW 19.6 mph 23.0 mph N/A   Overcast
4:55 AM 37.6 °F 28.4 °F 32.2 °F 81% 29.45 in 10.0 mi North 16.1 mph 25.3 mph N/A   Overcast
5:15 AM 36.9 °F 26.2 °F 32.0 °F 83% 29.44 in 10.0 mi North 20.7 mph 26.5 mph N/A   Overcast
5:35 AM 36.5 °F 26.0 °F 32.0 °F 84% 29.44 in 10.0 mi North 19.6 mph 26.5 mph N/A   Overcast
5:55 AM 35.8 °F 25.7 °F 31.8 °F 86% 29.43 in 7.0 mi North 17.3 mph 28.8 mph N/A   Overcast
6:15 AM 35.6 °F 24.5 °F 32.0 °F 87% 29.43 in 7.0 mi North 20.7 mph 27.6 mph N/A   Overcast
6:35 AM 34.9 °F 23.9 °F 31.6 °F 88% 29.44 in 7.0 mi North 19.6 mph 31.1 mph N/A   Overcast
6:55 AM 34.7 °F 23.1 °F 31.6 °F 89% 29.44 in 7.0 mi North 21.9 mph 29.9 mph N/A   Overcast
7:15 AM 34.5 °F 23.8 °F 31.5 °F 89% 29.44 in 7.0 mi North 18.4 mph 28.8 mph N/A   Overcast
7:35 AM 34.0 °F 22.7 °F 31.1 °F 89% 29.46 in 5.0 mi North 19.6 mph 29.9 mph N/A   Overcast
7:55 AM 34.2 °F 23.0 °F 31.3 °F 89% 29.48 in 5.0 mi North 19.6 mph 28.8 mph N/A   Overcast
8:15 AM 34.3 °F 23.9 °F 31.3 °F 89% 29.49 in 7.0 mi North 17.3 mph 27.6 mph N/A   Overcast
8:35 AM 34.2 °F 22.3 °F 31.1 °F 89% 29.52 in 7.0 mi North 21.9 mph 31.1 mph N/A   Overcast
8:55 AM 34.0 °F 23.0 °F 30.2 °F 86% 29.54 in 10.0 mi North 18.4 mph 31.1 mph N/A   Overcast
9:15 AM 33.8 °F 23.9 °F 29.7 °F 85% 29.56 in 5.0 mi North 15.0 mph 24.2 mph N/A Snow Light Snow
9:35 AM 32.9 °F 21.6 °F 30.2 °F 90% 29.55 in 0.5 mi North 18.4 mph 27.6 mph N/A Snow Light Snow
9:55 AM 32.4 °F 19.7 °F 30.2 °F 92% 29.55 in 0.5 mi North 23.0 mph 29.9 mph N/A Snow Snow
10:15 AM 32.0 °F 18.4 °F 30.0 °F 92% 29.57 in 0.2 mi North 26.5 mph 33.4 mph N/A Snow Snow
10:35 AM 32.0 °F 19.2 °F 30.0 °F 92% 29.58 in 0.2 mi North 23.0 mph 31.1 mph N/A Snow Snow
10:55 AM 32.0 °F 19.5 °F 29.7 °F 91% 29.60 in 0.2 mi North 21.9 mph 29.9 mph N/A Snow Snow
11:15 AM 32.0 °F 19.5 °F 29.8 °F 92% 29.60 in 0.2 mi North 21.9 mph 32.2 mph N/A Snow Snow
11:35 AM 32.2 °F 18.9 °F 30.2 °F 92% 29.61 in 0.2 mi North 25.3 mph 31.1 mph 0.01 in Snow Snow
11:55 AM 32.4 °F 20.3 °F 30.2 °F 92% 29.63 in 0.2 mi North 20.7 mph 32.2 mph 0.01 in Snow Snow
12:15 PM 32.9 °F 21.6 °F 30.6 °F 91% 29.64 in 0.2 mi North 18.4 mph 28.8 mph N/A Snow Snow
12:35 PM 33.3 °F 22.1 °F 30.9 °F 91% 29.65 in 0.5 mi North 18.4 mph 27.6 mph N/A Snow Snow
12:55 PM 33.8 °F 21.0 °F 30.9 °F 89% 29.66 in 0.8 mi North 25.3 mph 34.5 mph N/A Snow Light Snow
1:15 PM 33.4 °F 20.8 °F 30.7 °F 90% 29.66 in 0.8 mi North 24.2 mph 33.4 mph N/A Snow Light Snow
1:35 PM 33.3 °F 19.8 °F 30.6 °F 90% 29.68 in 0.8 mi North 27.6 mph 35.7 mph N/A Snow Light Snow
1:55 PM 33.8 °F 21.0 °F 30.6 °F 88% 29.69 in 1.0 mi North 25.3 mph 32.2 mph N/A Snow Light Snow
2:15 PM 33.3 °F 20.3 °F 30.7 °F 90% 29.71 in 1.0 mi North 25.3 mph 35.7 mph N/A Snow Light Snow
2:35 PM 32.9 °F 20.4 °F 30.4 °F 90% 29.72 in 2.0 mi North 23.0 mph 32.2 mph N/A   Overcast
2:55 PM 33.3 °F 20.3 °F 30.2 °F 89% 29.72 in 7.0 mi North 25.3 mph 32.2 mph N/A   Overcast
3:15 PM 33.8 °F 21.6 °F 29.8 °F 85% 29.73 in 5.0 mi North 23.0 mph 33.4 mph N/A   Overcast
3:35 PM 33.8 °F 20.8 °F 29.7 °F 85% 29.74 in 7.0 mi NNW 26.5 mph 34.5 mph N/A   Overcast
3:55 PM 34.2 °F 21.3 °F 29.8 °F 84% 29.75 in 10.0 mi North 26.5 mph 34.5 mph N/A   Overcast
4:15 PM 34.3 °F 22.6 °F 29.5 °F 82% 29.77 in 10.0 mi North 21.9 mph 32.2 mph N/A   Overcast
4:35 PM 34.7 °F 22.2 °F 29.3 °F 81% 29.78 in 10.0 mi North 25.3 mph 29.9 mph N/A   Overcast
4:55 PM 34.9 °F 21.3 °F 29.1 °F 79% 29.78 in 10.0 mi North 31.1 mph 38.0 mph N/A   Overcast
5:15 PM 35.1 °F 23.0 °F 29.3 °F 80% 29.80 in 10.0 mi North 24.2 mph 31.1 mph N/A   Overcast
5:35 PM 35.1 °F 23.3 °F 29.3 °F 80% 29.80 in 10.0 mi North 23.0 mph 32.2 mph N/A   Overcast
5:55 PM 35.1 °F 23.5 °F 29.3 °F 80% 29.82 in 10.0 mi North 21.9 mph 28.8 mph N/A   Overcast
6:15 PM 35.2 °F 23.8 °F 29.3 °F 79% 29.83 in 10.0 mi North 21.9 mph 26.5 mph N/A   Mostly Cloudy
6:35 PM 35.6 °F 25.2 °F 29.5 °F 78% 29.84 in 10.0 mi North 18.4 mph 31.1 mph N/A   Scattered Clouds
6:55 PM 35.6 °F 25.5 °F 29.3 °F 78% 29.85 in 10.0 mi North 17.3 mph 29.9 mph N/A   Clear
7:15 PM 35.4 °F 24.9 °F 29.3 °F 78% 29.86 in 10.0 mi NNW 18.4 mph 27.6 mph N/A   Clear
7:35 PM 35.6 °F 24.5 °F 29.3 °F 78% 29.87 in 10.0 mi North 20.7 mph 25.3 mph N/A   Clear
7:55 PM 35.6 °F 25.5 °F 29.8 °F 80% 29.89 in 10.0 mi NNW 17.3 mph 23.0 mph N/A   Clear
8:15 PM 35.2 °F 25.0 °F 30.0 °F 81% 29.90 in 10.0 mi NNW 17.3 mph 20.7 mph N/A   Clear
8:35 PM 35.2 °F 26.2 °F 30.2 °F 82% 29.92 in 10.0 mi North 13.8 mph - N/A   Clear
8:55 PM 34.7 °F 25.1 °F 30.2 °F 84% 29.93 in 10.0 mi NNW 15.0 mph - N/A   Clear
9:15 PM 34.3 °F 25.5 °F 30.2 °F 85% 29.95 in 10.0 mi North 12.7 mph - N/A   Clear
9:35 PM 33.8 °F 25.3 °F 30.2 °F 87% 29.96 in 10.0 mi North 11.5 mph - N/A   Clear
10:15 PM 33.1 °F 23.4 °F 29.8 °F 88% 29.97 in 7.0 mi NNW 13.8 mph 17.3 mph N/A   Scattered Clouds
10:18 PM 33.8 °F 24.8 °F 30.2 °F 87% 29.97 in 7.0 mi North 12.7 mph 17.3 mph N/A   Mostly Cloudy
10:35 PM 34.2 °F 23.6 °F 30.7 °F 87% 29.98 in 7.0 mi North 17.3 mph 23.0 mph N/A   Overcast
10:55 PM 34.3 °F 25.0 °F 30.7 °F 87% 29.98 in 7.0 mi North 13.8 mph - N/A   Overcast
11:15 PM 34.2 °F 24.8 °F 30.7 °F 87% 29.99 in 7.0 mi NNW 13.8 mph - N/A   Overcast
11:35 PM 34.3 °F 25.9 °F 30.7 °F 87% 29.99 in 7.0 mi North 11.5 mph - N/A   Overcast